Time,TemperatureF,DewpointF,PressureIn,WindDirection,WindDirectionDegrees,WindSpeedMPH,WindSpeedGustMPH,Humidity,HourlyPrecipIn,Conditions,Clouds,dailyrainin,SoftwareType,DateUTC
2013-06-04 00:20:00,77.1,74.7,30.03,West,274,0.0,0.0,92,1.17,,---,0.00,VWS V13.01,2013-06-04 04:20:00,
2013-06-04 00:22:00,77.3,75.0,30.03,West,274,0.0,0.0,93,1.17,,---,0.00,VWS V13.01,2013-06-04 04:22:00,
2013-06-04 00:23:00,77.3,75.0,30.03,West,274,0.0,0.0,93,1.17,,---,0.00,VWS V13.01,2013-06-04 04:23:00,
2013-06-04 00:25:00,77.1,74.7,30.03,West,274,0.0,0.0,92,1.17,,---,0.00,VWS V13.01,2013-06-04 04:25:00,
2013-06-04 00:30:00,77.1,74.8,30.02,NNW,343,0.0,0.8,92,1.17,,---,0.00,VWS V13.01,2013-06-04 04:30:00,
2013-06-04 00:35:00,77.3,75.0,30.02,NNW,343,0.0,0.0,93,1.17,,---,0.00,VWS V13.01,2013-06-04 04:35:00,
2013-06-04 00:40:00,77.1,74.8,30.02,NNW,343,0.0,0.0,92,1.17,,---,0.00,VWS V13.01,2013-06-04 04:40:00,
2013-06-04 00:45:00,77.2,74.9,30.02,NNW,343,0.0,0.0,93,1.17,,---,0.00,VWS V13.01,2013-06-04 04:45:00,
2013-06-04 00:50:00,77.4,75.1,30.02,NNW,343,0.0,0.0,92,1.17,,---,0.00,VWS V13.01,2013-06-04 04:50:00,
2013-06-04 00:56:00,77.1,74.8,30.02,NNW,343,0.0,0.0,93,1.17,,---,0.00,VWS V13.01,2013-06-04 04:56:00,
2013-06-04 01:01:00,77.3,75.0,30.02,NNW,343,0.0,0.0,93,1.17,,---,0.00,VWS V13.01,2013-06-04 05:01:00,
2013-06-04 01:06:00,76.9,74.6,30.02,NNW,343,0.0,0.0,92,1.17,,---,0.00,VWS V13.01,2013-06-04 05:06:00,
2013-06-04 01:11:00,77.0,74.7,30.02,NNW,343,0.0,0.0,92,1.17,,---,0.00,VWS V13.01,2013-06-04 05:11:00,
2013-06-04 01:16:00,77.0,74.7,30.02,NNW,343,0.0,0.0,92,1.17,,---,0.00,VWS V13.01,2013-06-04 05:16:00,
2013-06-04 01:21:00,76.9,74.6,30.02,NNW,343,0.0,0.0,93,0.00,,---,0.00,VWS V13.01,2013-06-04 05:21:00,
2013-06-04 01:26:00,76.8,74.5,30.02,NNW,343,0.0,0.0,92,0.00,,---,0.00,VWS V13.01,2013-06-04 05:26:00,
2013-06-04 01:31:00,76.9,74.6,30.01,NNW,343,0.0,0.0,93,0.00,,---,0.00,VWS V13.01,2013-06-04 05:31:00,
2013-06-04 01:36:00,76.9,74.4,30.02,SE,143,9.6,9.6,92,0.00,,---,0.00,VWS V13.01,2013-06-04 05:36:00,
2013-06-04 01:41:00,75.7,72.6,30.02,ESE,114,7.5,7.5,90,0.05,,---,0.05,VWS V13.01,2013-06-04 05:41:00,
2013-06-04 01:46:00,74.8,72.0,30.02,ESE,104,0.0,0.0,91,0.10,,---,0.11,VWS V13.01,2013-06-04 05:46:00,
2013-06-04 01:51:00,74.3,71.8,30.02,East,97,0.0,0.5,92,0.12,,---,0.12,VWS V13.01,2013-06-04 05:51:00,
2013-06-04 01:57:00,74.2,71.9,30.01,WNW,287,2.2,2.2,93,0.13,,---,0.13,VWS V13.01,2013-06-04 05:57:00,
2013-06-04 02:02:00,73.9,71.9,30.01,NW,312,0.0,1.4,94,0.14,,---,0.14,VWS V13.01,2013-06-04 06:02:00,
2013-06-04 02:07:00,74.0,72.1,30.00,NW,307,0.0,0.0,94,0.15,,---,0.15,VWS V13.01,2013-06-04 06:07:00,
2013-06-04 02:12:00,73.9,72.1,30.00,WNW,302,0.0,0.0,94,0.15,,---,0.15,VWS V13.01,2013-06-04 06:12:00,
2013-06-04 02:18:00,73.8,72.0,30.00,WNW,302,0.0,0.0,94,0.16,,---,0.16,VWS V13.01,2013-06-04 06:18:00,
2013-06-04 02:23:00,73.7,72.0,29.99,WNW,302,0.0,0.0,94,0.16,,---,0.16,VWS V13.01,2013-06-04 06:23:00,
2013-06-04 02:28:00,73.6,72.0,29.99,NW,322,2.2,3.8,95,0.16,,---,0.16,VWS V13.01,2013-06-04 06:28:00,
2013-06-04 02:33:00,73.6,72.0,29.99,WNW,298,0.0,1.3,95,0.16,,---,0.16,VWS V13.01,2013-06-04 06:33:00,
2013-06-04 02:38:00,73.5,71.9,29.99,NNW,340,0.0,3.0,95,0.16,,---,0.16,VWS V13.01,2013-06-04 06:38:00,
2013-06-04 02:43:00,73.5,72.0,29.99,NW,305,0.0,0.0,95,0.09,,---,0.16,VWS V13.01,2013-06-04 06:43:00,
2013-06-04 02:48:00,73.5,72.0,29.99,NNE,20,0.5,1.6,95,0.05,,---,0.16,VWS V13.01,2013-06-04 06:48:00,
2013-06-04 02:53:00,73.3,71.8,29.99,West,270,0.0,0.0,95,0.04,,---,0.16,VWS V13.01,2013-06-04 06:53:00,
2013-06-04 02:58:00,73.4,71.9,29.99,West,270,0.0,0.0,95,0.03,,---,0.16,VWS V13.01,2013-06-04 06:58:00,
2013-06-04 03:03:00,73.3,71.8,29.98,West,270,0.0,0.0,95,0.02,,---,0.16,VWS V13.01,2013-06-04 07:03:00,
2013-06-04 03:08:00,73.5,72.1,29.98,West,270,0.0,0.0,95,0.01,,---,0.16,VWS V13.01,2013-06-04 07:08:00,
2013-06-04 03:13:00,73.5,72.1,29.98,West,270,0.0,0.0,95,0.01,,---,0.16,VWS V13.01,2013-06-04 07:13:00,
2013-06-04 03:18:00,73.5,72.1,29.98,West,270,0.0,0.0,95,0.00,,---,0.16,VWS V13.01,2013-06-04 07:18:00,
2013-06-04 03:24:00,73.6,72.2,29.98,West,270,0.0,0.0,95,0.00,,---,0.16,VWS V13.01,2013-06-04 07:24:00,
2013-06-04 03:29:00,73.6,72.2,29.98,West,270,0.0,0.0,95,0.00,,---,0.16,VWS V13.01,2013-06-04 07:29:00,
2013-06-04 03:34:00,73.5,72.1,29.98,West,270,0.0,0.0,95,0.00,,---,0.16,VWS V13.01,2013-06-04 07:34:00,
2013-06-04 03:39:00,73.5,72.1,29.98,West,270,0.0,0.0,95,0.00,,---,0.16,VWS V13.01,2013-06-04 07:39:00,
2013-06-04 03:44:00,73.7,72.3,29.98,NNW,342,0.7,0.7,95,0.00,,---,0.16,VWS V13.01,2013-06-04 07:44:00,
2013-06-04 03:49:00,73.5,72.1,29.97,NW,323,0.0,0.0,95,0.00,,---,0.16,VWS V13.01,2013-06-04 07:49:00,
2013-06-04 03:54:00,73.5,72.1,29.98,NNE,15,0.0,0.0,95,0.00,,---,0.16,VWS V13.01,2013-06-04 07:54:00,
2013-06-04 03:59:00,73.7,72.3,29.98,NNE,15,0.0,0.0,95,0.00,,---,0.16,VWS V13.01,2013-06-04 07:59:00,
2013-06-04 04:04:00,73.6,72.2,29.98,NNE,15,0.0,0.0,95,0.00,,---,0.16,VWS V13.01,2013-06-04 08:04:00,
2013-06-04 04:09:00,73.6,72.2,29.98,NNE,15,0.0,0.0,95,0.00,,---,0.16,VWS V13.01,2013-06-04 08:09:00,
2013-06-04 04:14:00,73.6,72.2,29.98,NNE,15,0.0,0.0,95,0.01,,---,0.17,VWS V13.01,2013-06-04 08:14:00,
2013-06-04 04:19:00,73.6,72.2,29.98,NNE,15,0.0,0.0,95,0.01,,---,0.17,VWS V13.01,2013-06-04 08:19:00,
2013-06-04 04:24:00,73.5,72.1,29.98,NNE,15,0.0,0.0,95,0.01,,---,0.17,VWS V13.01,2013-06-04 08:24:00,
2013-06-04 04:29:00,73.8,72.4,29.98,NNE,15,0.0,0.0,95,0.01,,---,0.17,VWS V13.01,2013-06-04 08:29:00,
2013-06-04 04:34:00,73.7,72.3,29.97,NNE,15,0.0,0.0,95,0.01,,---,0.17,VWS V13.01,2013-06-04 08:34:00,
2013-06-04 04:40:00,73.4,72.0,29.98,NNE,15,0.0,0.0,95,0.01,,---,0.17,VWS V13.01,2013-06-04 08:40:00,
2013-06-04 04:45:00,73.5,72.1,29.98,NNE,15,0.0,0.0,95,0.01,,---,0.17,VWS V13.01,2013-06-04 08:45:00,
2013-06-04 04:50:00,73.6,72.2,29.97,NNE,15,0.0,0.0,95,0.01,,---,0.17,VWS V13.01,2013-06-04 08:50:00,
2013-06-04 04:55:00,73.7,72.3,29.98,NNE,15,0.0,0.0,95,0.01,,---,0.17,VWS V13.01,2013-06-04 08:55:00,
2013-06-04 05:00:00,73.8,72.4,29.98,NNE,15,0.0,0.0,96,0.01,,---,0.17,VWS V13.01,2013-06-04 09:00:00,
2013-06-04 05:05:00,73.9,72.5,29.97,NNE,15,0.0,0.0,96,0.01,,---,0.17,VWS V13.01,2013-06-04 09:05:00,
2013-06-04 05:10:00,73.9,72.5,29.97,NNE,15,0.0,0.0,96,0.01,,---,0.17,VWS V13.01,2013-06-04 09:10:00,
2013-06-04 05:15:00,73.9,72.5,29.97,NNE,15,0.0,0.0,95,0.00,,---,0.17,VWS V13.01,2013-06-04 09:15:00,
2013-06-04 05:20:00,74.0,72.6,29.97,NNE,15,0.0,0.0,96,0.00,,---,0.17,VWS V13.01,2013-06-04 09:20:00,
2013-06-04 05:25:00,74.1,72.7,29.97,NNE,15,0.0,0.0,96,0.00,,---,0.17,VWS V13.01,2013-06-04 09:25:00,
2013-06-04 05:30:00,74.1,72.7,29.97,NNE,15,0.0,0.0,96,0.00,,---,0.17,VWS V13.01,2013-06-04 09:30:00,
2013-06-04 05:35:00,74.1,72.7,29.97,NNE,15,0.0,0.0,96,0.00,,---,0.17,VWS V13.01,2013-06-04 09:35:00,
2013-06-04 05:40:00,74.1,72.7,29.97,NNE,15,0.0,0.0,96,0.00,,---,0.17,VWS V13.01,2013-06-04 09:40:00,
2013-06-04 05:45:00,74.0,72.6,29.97,NNE,15,0.0,0.0,96,0.00,,---,0.17,VWS V13.01,2013-06-04 09:45:00,
2013-06-04 05:50:00,74.2,72.8,29.98,NNE,15,0.0,0.0,96,0.00,,---,0.17,VWS V13.01,2013-06-04 09:50:00,
2013-06-04 05:55:00,74.3,72.9,29.97,NNE,15,0.0,0.0,96,0.00,,---,0.17,VWS V13.01,2013-06-04 09:55:00,
2013-06-04 06:00:00,74.1,72.7,29.98,NNE,15,0.0,0.0,96,0.00,,---,0.17,VWS V13.01,2013-06-04 10:00:00,
2013-06-04 06:05:00,74.1,72.7,29.97,NNE,15,0.0,0.0,96,0.00,,---,0.17,VWS V13.01,2013-06-04 10:05:00,
2013-06-04 06:11:00,74.1,72.7,29.97,NNE,15,0.0,0.0,96,0.00,,---,0.17,VWS V13.01,2013-06-04 10:11:00,
2013-06-04 06:16:00,74.1,72.7,29.98,NNE,15,0.0,0.0,96,0.00,,---,0.17,VWS V13.01,2013-06-04 10:16:00,
2013-06-04 06:21:00,74.0,72.7,29.98,NNE,15,0.0,0.0,96,0.00,,---,0.17,VWS V13.01,2013-06-04 10:21:00,
2013-06-04 06:26:00,74.0,72.7,29.98,NNE,15,0.0,0.0,96,0.00,,---,0.17,VWS V13.01,2013-06-04 10:26:00,
2013-06-04 06:31:00,74.2,72.9,29.98,NNE,15,0.0,0.0,96,0.00,,---,0.17,VWS V13.01,2013-06-04 10:31:00,
2013-06-04 06:36:00,74.1,72.8,29.98,NNE,15,0.0,0.0,96,0.00,,---,0.17,VWS V13.01,2013-06-04 10:36:00,
2013-06-04 06:41:00,74.0,72.7,29.98,NNE,15,0.0,0.0,96,0.00,,---,0.17,VWS V13.01,2013-06-04 10:41:00,
2013-06-04 06:46:00,74.2,72.9,29.98,NNE,15,0.0,0.0,96,0.00,,---,0.17,VWS V13.01,2013-06-04 10:46:00,
2013-06-04 06:51:00,74.2,72.9,29.98,NNE,15,0.0,0.0,96,0.00,,---,0.17,VWS V13.01,2013-06-04 10:51:00,
2013-06-04 06:56:00,74.3,73.0,29.98,NNE,15,0.0,0.0,96,0.00,,---,0.17,VWS V13.01,2013-06-04 10:56:00,
2013-06-04 07:01:00,74.3,73.0,29.98,NNE,15,0.0,0.0,96,0.00,,---,0.17,VWS V13.01,2013-06-04 11:01:00,
2013-06-04 07:07:00,74.5,73.2,29.98,NNE,15,0.0,0.0,96,0.00,,---,0.17,VWS V13.01,2013-06-04 11:07:00,
2013-06-04 07:12:00,74.8,73.5,29.99,NNE,15,0.0,0.0,96,0.00,,---,0.17,VWS V13.01,2013-06-04 11:12:00,
2013-06-04 07:17:00,75.1,73.8,29.99,NNE,15,0.0,0.0,96,0.00,,---,0.17,VWS V13.01,2013-06-04 11:17:00,
2013-06-04 07:22:00,75.0,73.7,29.99,NNE,15,0.0,0.0,96,0.00,,---,0.17,VWS V13.01,2013-06-04 11:22:00,
2013-06-04 07:27:00,75.1,73.8,29.99,NNE,15,0.0,0.0,96,0.00,,---,0.17,VWS V13.01,2013-06-04 11:27:00,
2013-06-04 07:32:00,75.2,73.9,29.99,NNE,15,0.0,0.0,96,0.00,,---,0.17,VWS V13.01,2013-06-04 11:32:00,
2013-06-04 07:37:00,75.2,73.9,30.00,NNE,15,0.0,0.0,96,0.00,,---,0.17,VWS V13.01,2013-06-04 11:37:00,
2013-06-04 07:42:00,75.4,74.1,30.00,NNE,15,0.0,0.0,96,0.00,,---,0.17,VWS V13.01,2013-06-04 11:42:00,
2013-06-04 07:47:00,75.5,74.2,30.00,NNE,15,0.0,0.0,96,0.00,,---,0.17,VWS V13.01,2013-06-04 11:47:00,
2013-06-04 07:52:00,75.7,74.4,30.00,NNE,15,0.0,0.0,96,0.00,,---,0.17,VWS V13.01,2013-06-04 11:52:00,
2013-06-04 07:57:00,75.6,74.3,30.00,NNE,15,0.0,0.0,96,0.00,,---,0.17,VWS V13.01,2013-06-04 11:57:00,
2013-06-04 08:02:00,75.8,74.5,30.00,NNE,15,0.0,0.0,96,0.00,,---,0.17,VWS V13.01,2013-06-04 12:02:00,
2013-06-04 08:07:00,75.9,74.6,30.00,NNE,15,0.0,0.0,96,0.00,,---,0.17,VWS V13.01,2013-06-04 12:07:00,
2013-06-04 08:13:00,76.1,74.8,30.00,NNE,15,0.0,0.0,96,0.00,,---,0.17,VWS V13.01,2013-06-04 12:13:00,
2013-06-04 08:18:00,76.2,74.9,30.00,NNE,15,0.0,0.0,96,0.00,,---,0.17,VWS V13.01,2013-06-04 12:18:00,
2013-06-04 08:23:00,76.1,74.7,30.01,NNE,15,0.0,0.0,96,0.00,,---,0.17,VWS V13.01,2013-06-04 12:23:00,
2013-06-04 08:28:00,76.3,74.9,30.01,NNE,15,0.0,0.0,95,0.00,,---,0.17,VWS V13.01,2013-06-04 12:28:00,
2013-06-04 08:33:00,76.3,74.9,30.01,NNE,15,0.0,0.0,95,0.00,,---,0.17,VWS V13.01,2013-06-04 12:33:00,
2013-06-04 08:38:00,76.5,75.1,30.01,NE,49,1.4,2.7,95,0.00,,---,0.17,VWS V13.01,2013-06-04 12:38:00,
2013-06-04 08:43:00,76.8,75.4,30.01,ENE,63,1.6,2.2,95,0.00,,---,0.17,VWS V13.01,2013-06-04 12:43:00,
2013-06-04 08:48:00,77.0,75.5,30.01,NNE,17,0.0,0.8,95,0.00,,---,0.17,VWS V13.01,2013-06-04 12:48:00,
2013-06-04 08:53:00,77.0,75.5,30.02,NE,35,0.0,0.0,95,0.00,,---,0.17,VWS V13.01,2013-06-04 12:53:00,
2013-06-04 08:58:00,77.3,75.6,30.02,NNE,31,0.0,0.0,94,0.00,,---,0.17,VWS V13.01,2013-06-04 12:58:00,
2013-06-04 09:04:00,77.7,76.0,30.02,NNE,31,0.0,0.0,94,0.00,,---,0.17,VWS V13.01,2013-06-04 13:04:00,
2013-06-04 09:09:00,77.9,76.1,30.02,NE,48,2.2,2.2,94,0.00,,---,0.17,VWS V13.01,2013-06-04 13:09:00,
2013-06-04 09:14:00,78.2,76.2,30.03,NE,46,0.0,0.0,94,0.00,,---,0.17,VWS V13.01,2013-06-04 13:14:00,
2013-06-04 09:19:00,78.1,76.0,30.03,East,93,0.0,0.0,93,0.00,,---,0.17,VWS V13.01,2013-06-04 13:19:00,
2013-06-04 09:24:00,78.3,76.1,30.03,East,93,0.0,0.0,93,0.00,,---,0.17,VWS V13.01,2013-06-04 13:24:00,
2013-06-04 09:29:00,78.7,76.4,30.04,East,93,0.0,0.0,93,0.00,,---,0.17,VWS V13.01,2013-06-04 13:29:00,
2013-06-04 09:34:00,78.5,76.0,30.04,ENE,60,0.0,0.5,92,0.00,,---,0.17,VWS V13.01,2013-06-04 13:34:00,
2013-06-04 09:39:00,78.7,76.0,30.05,ENE,60,0.0,0.0,92,0.00,,---,0.17,VWS V13.01,2013-06-04 13:39:00,
2013-06-04 09:44:00,78.9,76.1,30.05,ENE,60,0.0,0.0,91,0.00,,---,0.17,VWS V13.01,2013-06-04 13:44:00,
2013-06-04 09:50:00,79.2,76.3,30.05,ENE,60,0.0,0.0,91,0.00,,---,0.17,VWS V13.01,2013-06-04 13:50:00,
2013-06-04 09:55:00,79.2,76.1,30.05,NNE,28,0.0,0.0,90,0.00,,---,0.17,VWS V13.01,2013-06-04 13:55:00,
2013-06-04 10:00:00,79.3,75.9,30.05,NE,55,0.0,1.4,90,0.00,,---,0.17,VWS V13.01,2013-06-04 14:00:00,
2013-06-04 10:05:00,79.3,76.1,30.05,NNE,25,0.7,0.7,90,0.00,,---,0.17,VWS V13.01,2013-06-04 14:05:00,
2013-06-04 10:10:00,79.7,76.4,30.05,NW,326,0.0,0.0,90,0.00,,---,0.17,VWS V13.01,2013-06-04 14:10:00,
2013-06-04 10:15:00,79.5,76.1,30.05,North,353,0.0,2.3,89,0.01,,---,0.18,VWS V13.01,2013-06-04 14:15:00,
2013-06-04 10:20:00,79.8,76.3,30.05,ENE,59,1.6,2.5,89,0.01,,---,0.18,VWS V13.01,2013-06-04 14:20:00,
2013-06-04 10:25:00,79.4,75.8,30.06,NE,35,0.0,1.4,89,0.01,,---,0.18,VWS V13.01,2013-06-04 14:25:00,
2013-06-04 10:30:00,79.7,76.0,30.06,ENE,65,2.1,2.6,88,0.01,,---,0.18,VWS V13.01,2013-06-04 14:30:00,
2013-06-04 10:35:00,79.8,76.0,30.05,NE,48,4.3,4.5,88,0.01,,---,0.18,VWS V13.01,2013-06-04 14:35:00,
2013-06-04 10:40:00,79.8,76.1,30.05,NE,46,0.6,0.6,88,0.01,,---,0.18,VWS V13.01,2013-06-04 14:40:00,
2013-06-04 10:45:00,80.1,76.3,30.05,ENE,59,2.4,2.5,88,0.01,,---,0.18,VWS V13.01,2013-06-04 14:45:00,
2013-06-04 10:50:00,80.0,76.3,30.05,North,6,0.9,1.1,88,0.01,,---,0.18,VWS V13.01,2013-06-04 14:50:00,
2013-06-04 10:55:00,80.3,76.6,30.05,NNE,18,2.9,3.1,88,0.01,,---,0.18,VWS V13.01,2013-06-04 14:55:00,
2013-06-04 11:00:00,80.4,76.6,30.06,NNE,14,0.6,0.8,88,0.01,,---,0.18,VWS V13.01,2013-06-04 15:00:00,
2013-06-04 11:05:00,80.4,76.7,30.06,NNE,24,2.4,2.4,88,0.01,,---,0.18,VWS V13.01,2013-06-04 15:05:00,
2013-06-04 11:10:00,80.5,76.6,30.05,NNE,15,3.5,3.5,88,0.01,,---,0.18,VWS V13.01,2013-06-04 15:10:00,
2013-06-04 11:15:00,80.8,77.0,30.05,NE,49,3.3,4.8,88,0.00,,---,0.18,VWS V13.01,2013-06-04 15:15:00,
2013-06-04 11:20:00,80.7,76.8,30.05,NNE,30,2.0,4.7,88,0.00,,---,0.18,VWS V13.01,2013-06-04 15:20:00,
2013-06-04 11:26:00,80.5,76.2,30.06,NE,56,1.7,5.7,87,0.00,,---,0.18,VWS V13.01,2013-06-04 15:26:00,
2013-06-04 11:31:00,80.7,76.5,30.05,NE,56,2.5,3.9,87,0.00,,---,0.18,VWS V13.01,2013-06-04 15:31:00,
2013-06-04 11:36:00,81.1,76.9,30.05,NNE,15,2.5,5.0,87,0.00,,---,0.18,VWS V13.01,2013-06-04 15:36:00,
2013-06-04 11:41:00,81.1,76.8,30.05,NE,38,3.5,4.1,87,0.00,,---,0.18,VWS V13.01,2013-06-04 15:41:00,
2013-06-04 16:10:00,83.4,71.4,30.00,NE,48,1.5,1.5,67,0.00,,---,0.18,VWS V13.01,2013-06-04 20:10:00,
2013-06-04 16:15:00,83.8,72.0,29.99,NNW,340,0.0,1.1,68,0.00,,---,0.18,VWS V13.01,2013-06-04 20:15:00,
2013-06-04 16:21:00,84.3,73.0,29.99,ESE,122,2.2,4.0,69,0.00,,---,0.18,VWS V13.01,2013-06-04 20:21:00,
2013-06-04 16:26:00,84.5,73.8,29.99,ENE,69,2.3,5.4,70,0.00,,---,0.18,VWS V13.01,2013-06-04 20:26:00,
2013-06-04 16:31:00,84.0,74.1,30.00,NE,52,3.0,3.0,72,0.00,,---,0.18,VWS V13.01,2013-06-04 20:31:00,
2013-06-04 16:36:00,84.1,75.0,29.99,East,82,3.1,3.7,74,0.00,,---,0.18,VWS V13.01,2013-06-04 20:36:00,
2013-06-04 16:41:00,83.5,75.1,29.99,ESE,117,2.5,4.4,76,0.00,,---,0.18,VWS V13.01,2013-06-04 20:41:00,
2013-06-04 16:46:00,83.2,75.3,29.99,NE,52,2.2,4.7,77,0.00,,---,0.18,VWS V13.01,2013-06-04 20:46:00,
2013-06-04 16:51:00,82.8,75.7,29.99,East,97,2.3,3.1,79,0.00,,---,0.18,VWS V13.01,2013-06-04 20:51:00,
2013-06-04 16:56:00,82.4,75.6,29.99,East,101,0.7,1.4,80,0.00,,---,0.18,VWS V13.01,2013-06-04 20:56:00,
2013-06-04 17:01:00,82.4,76.0,29.99,NE,55,2.2,3.6,81,0.00,,---,0.18,VWS V13.01,2013-06-04 21:01:00,
2013-06-04 17:06:00,82.4,76.4,29.99,NE,49,2.7,5.3,82,0.00,,---,0.18,VWS V13.01,2013-06-04 21:06:00,
2013-06-04 17:11:00,82.0,76.0,29.99,NE,37,3.4,3.4,82,0.00,,---,0.18,VWS V13.01,2013-06-04 21:11:00,
2013-06-04 17:16:00,82.0,76.3,29.99,ESE,122,2.4,2.9,83,0.00,,---,0.18,VWS V13.01,2013-06-04 21:16:00,
2013-06-04 17:21:00,81.7,76.0,29.99,ENE,75,2.7,2.9,83,0.00,,---,0.18,VWS V13.01,2013-06-04 21:21:00,
2013-06-04 17:26:00,81.7,75.8,29.98,NE,56,3.9,7.2,82,0.00,,---,0.18,VWS V13.01,2013-06-04 21:26:00,
2013-06-04 17:32:00,81.8,76.1,29.98,ENE,68,2.8,4.7,83,0.00,,---,0.18,VWS V13.01,2013-06-04 21:32:00,
2013-06-04 17:37:00,81.6,75.8,29.98,NE,48,5.9,6.2,83,0.00,,---,0.18,VWS V13.01,2013-06-04 21:37:00,
2013-06-04 17:42:00,81.5,75.7,29.98,NE,38,1.2,4.2,83,0.00,,---,0.18,VWS V13.01,2013-06-04 21:42:00,
2013-06-04 17:47:00,81.6,75.7,29.98,NE,46,8.3,9.1,82,0.00,,---,0.18,VWS V13.01,2013-06-04 21:47:00,
2013-06-04 17:52:00,81.6,75.4,29.98,ENE,72,4.2,6.7,82,0.00,,---,0.18,VWS V13.01,2013-06-04 21:52:00,
2013-06-04 17:57:00,81.5,75.6,29.98,NE,45,2.9,5.9,82,0.00,,---,0.18,VWS V13.01,2013-06-04 21:57:00,
2013-06-04 18:02:00,81.5,75.5,29.98,NNE,20,1.4,4.7,82,0.00,,---,0.18,VWS V13.01,2013-06-04 22:02:00,
2013-06-04 18:07:00,81.4,75.2,29.98,ENE,63,3.3,4.5,82,0.00,,---,0.18,VWS V13.01,2013-06-04 22:07:00,
2013-06-04 18:12:00,81.4,75.0,29.98,NE,53,4.7,8.3,81,0.00,,---,0.18,VWS V13.01,2013-06-04 22:12:00,
2013-06-04 18:17:00,81.3,74.9,29.98,NE,48,5.6,6.5,81,0.00,,---,0.18,VWS V13.01,2013-06-04 22:17:00,
2013-06-04 18:22:00,81.3,74.8,29.98,NE,37,6.4,7.6,81,0.00,,---,0.18,VWS V13.01,2013-06-04 22:22:00,
2013-06-04 18:27:00,81.3,74.9,29.98,NE,52,2.7,3.9,81,0.00,,---,0.18,VWS V13.01,2013-06-04 22:27:00,
2013-06-04 18:32:00,81.3,74.9,29.98,NNE,32,2.8,8.0,81,0.00,,---,0.18,VWS V13.01,2013-06-04 22:32:00,
2013-06-04 18:37:00,81.3,75.2,29.98,NE,52,2.9,5.0,82,0.00,,---,0.18,VWS V13.01,2013-06-04 22:37:00,
2013-06-04 18:42:00,81.2,75.3,29.98,NE,48,1.7,3.8,82,0.00,,---,0.18,VWS V13.01,2013-06-04 22:42:00,
2013-06-04 18:47:00,81.2,75.4,29.99,NE,53,5.1,8.4,83,0.00,,---,0.18,VWS V13.01,2013-06-04 22:47:00,
2013-06-04 18:53:00,81.1,75.6,29.99,NE,37,6.0,6.0,83,0.00,,---,0.18,VWS V13.01,2013-06-04 22:53:00,
2013-06-04 18:58:00,80.9,75.6,29.99,NE,49,2.9,3.8,84,0.00,,---,0.18,VWS V13.01,2013-06-04 22:58:00,
2013-06-04 19:03:00,80.6,75.5,29.99,NE,53,4.3,5.7,84,0.00,,---,0.18,VWS V13.01,2013-06-04 23:03:00,
2013-06-04 19:08:00,80.6,75.4,29.99,NE,48,3.7,3.7,84,0.00,,---,0.18,VWS V13.01,2013-06-04 23:08:00,
2013-06-04 19:13:00,80.6,75.5,30.00,NNE,22,4.5,5.2,84,0.00,,---,0.18,VWS V13.01,2013-06-04 23:13:00,
2013-06-04 19:18:00,80.4,75.4,30.00,NNE,21,2.1,2.5,85,0.00,,---,0.18,VWS V13.01,2013-06-04 23:18:00,
2013-06-04 19:23:00,80.5,75.7,30.00,NE,34,2.1,2.6,85,0.00,,---,0.18,VWS V13.01,2013-06-04 23:23:00,
2013-06-04 19:28:00,80.5,75.7,30.01,NE,37,4.3,5.0,85,0.00,,---,0.18,VWS V13.01,2013-06-04 23:28:00,
2013-06-04 19:33:00,80.5,75.8,30.01,NNE,31,2.1,3.3,86,0.00,,---,0.18,VWS V13.01,2013-06-04 23:33:00,
2013-06-04 19:38:00,80.3,75.6,30.01,NE,35,3.1,4.7,86,0.00,,---,0.18,VWS V13.01,2013-06-04 23:38:00,
2013-06-04 19:43:00,80.5,75.8,30.01,NNE,17,0.9,2.8,86,0.00,,---,0.18,VWS V13.01,2013-06-04 23:43:00,
2013-06-04 19:48:00,80.3,75.7,30.02,NNE,28,2.8,3.9,86,0.00,,---,0.18,VWS V13.01,2013-06-04 23:48:00,
2013-06-04 19:53:00,80.3,75.7,30.02,NE,55,2.6,3.0,86,0.00,,---,0.18,VWS V13.01,2013-06-04 23:53:00,
2013-06-04 19:58:00,80.1,75.5,30.02,NE,44,2.7,4.3,86,0.00,,---,0.18,VWS V13.01,2013-06-04 23:58:00,
2013-06-04 20:03:00,80.1,75.6,30.02,NNE,21,0.9,3.1,86,0.00,,---,0.18,VWS V13.01,2013-06-05 00:03:00,
2013-06-04 20:08:00,80.1,75.7,30.02,NE,34,3.1,6.1,86,0.00,,---,0.18,VWS V13.01,2013-06-05 00:08:00,
2013-06-04 20:13:00,80.0,75.5,30.02,NNE,32,2.1,5.3,86,0.00,,---,0.18,VWS V13.01,2013-06-05 00:13:00,
2013-06-04 20:18:00,80.0,75.4,30.02,NE,56,5.0,6.3,86,0.00,,---,0.18,VWS V13.01,2013-06-05 00:18:00,
2013-06-04 20:23:00,79.9,75.4,30.02,NE,52,2.1,5.2,86,0.00,,---,0.18,VWS V13.01,2013-06-05 00:23:00,
2013-06-04 20:28:00,80.0,75.5,30.02,NNE,22,2.9,3.2,86,0.00,,---,0.18,VWS V13.01,2013-06-05 00:28:00,
2013-06-04 20:33:00,79.8,75.1,30.02,NNE,21,2.4,7.4,86,0.00,,---,0.18,VWS V13.01,2013-06-05 00:33:00,
2013-06-04 20:39:00,79.9,75.1,30.02,NNE,31,1.7,2.2,85,0.00,,---,0.18,VWS V13.01,2013-06-05 00:39:00,
2013-06-04 20:44:00,79.8,74.8,30.02,North,7,2.2,4.4,85,0.00,,---,0.18,VWS V13.01,2013-06-05 00:44:00,
2013-06-04 20:49:00,79.9,74.6,30.02,NE,55,2.7,3.7,84,0.00,,---,0.18,VWS V13.01,2013-06-05 00:49:00,
2013-06-04 20:54:00,80.0,74.7,30.02,NNE,30,4.9,5.6,84,0.00,,---,0.18,VWS V13.01,2013-06-05 00:54:00,
2013-06-04 20:59:00,80.1,74.9,30.02,NE,49,2.5,4.2,84,0.00,,---,0.18,VWS V13.01,2013-06-05 00:59:00,
2013-06-04 21:04:00,80.1,74.8,30.02,NNE,30,5.8,5.8,84,0.00,,---,0.18,VWS V13.01,2013-06-05 01:04:00,
2013-06-04 21:09:00,80.1,74.7,30.02,NE,38,8.9,8.9,84,0.00,,---,0.18,VWS V13.01,2013-06-05 01:09:00,
2013-06-04 21:14:00,80.1,74.6,30.02,NE,48,2.8,4.7,83,0.00,,---,0.18,VWS V13.01,2013-06-05 01:14:00,
2013-06-04 21:19:00,80.2,74.2,30.03,NE,52,4.3,7.0,82,0.00,,---,0.18,VWS V13.01,2013-06-05 01:19:00,
2013-06-04 21:24:00,80.4,73.8,30.03,North,4,5.2,8.3,80,0.00,,---,0.18,VWS V13.01,2013-06-05 01:24:00,
2013-06-04 21:29:00,80.1,73.4,30.03,NE,48,4.4,4.6,80,0.00,,---,0.18,VWS V13.01,2013-06-05 01:29:00,
2013-06-04 21:34:00,80.3,73.5,30.03,ENE,63,3.0,5.7,80,0.00,,---,0.18,VWS V13.01,2013-06-05 01:34:00,
2013-06-04 21:39:00,80.1,73.3,30.03,NE,37,2.4,5.0,80,0.00,,---,0.18,VWS V13.01,2013-06-05 01:39:00,
2013-06-04 21:44:00,80.2,73.5,30.03,NE,49,2.2,5.6,80,0.00,,---,0.18,VWS V13.01,2013-06-05 01:44:00,
2013-06-04 21:49:00,80.3,73.6,30.03,NE,45,2.4,6.2,80,0.00,,---,0.18,VWS V13.01,2013-06-05 01:49:00,
2013-06-04 21:54:00,80.4,73.9,30.03,NE,39,5.2,5.3,81,0.00,,---,0.18,VWS V13.01,2013-06-05 01:54:00,
2013-06-04 21:59:00,80.5,74.1,30.03,NE,56,2.4,2.8,81,0.00,,---,0.18,VWS V13.01,2013-06-05 01:59:00,
2013-06-04 22:04:00,80.3,73.9,30.03,NE,53,2.2,6.3,81,0.00,,---,0.18,VWS V13.01,2013-06-05 02:04:00,
2013-06-04 22:09:00,80.4,74.1,30.03,NE,42,6.3,6.3,81,0.00,,---,0.18,VWS V13.01,2013-06-05 02:09:00,
2013-06-04 22:14:00,80.4,73.9,30.03,NE,37,4.9,7.3,81,0.00,,---,0.18,VWS V13.01,2013-06-05 02:14:00,
2013-06-04 22:19:00,80.4,74.0,30.03,NNE,28,5.0,6.4,81,0.00,,---,0.18,VWS V13.01,2013-06-05 02:19:00,
2013-06-04 22:24:00,80.4,74.2,30.03,NE,37,3.9,4.7,81,0.00,,---,0.18,VWS V13.01,2013-06-05 02:24:00,
2013-06-04 22:29:00,80.4,74.3,30.03,NE,46,1.2,2.2,82,0.00,,---,0.18,VWS V13.01,2013-06-05 02:29:00,
2013-06-04 22:34:00,80.3,74.3,30.03,NE,51,1.0,2.6,82,0.00,,---,0.18,VWS V13.01,2013-06-05 02:34:00,
2013-06-04 22:40:00,80.3,74.3,30.04,NE,35,4.2,4.7,82,0.00,,---,0.18,VWS V13.01,2013-06-05 02:40:00,
2013-06-04 22:45:00,80.3,74.2,30.03,NE,35,3.2,4.3,82,0.00,,---,0.18,VWS V13.01,2013-06-05 02:45:00,
2013-06-04 22:50:00,80.2,74.1,30.03,NE,48,1.5,2.8,82,0.00,,---,0.18,VWS V13.01,2013-06-05 02:50:00,
2013-06-04 22:55:00,80.2,74.2,30.03,NE,53,2.7,3.9,82,0.00,,---,0.18,VWS V13.01,2013-06-05 02:55:00,
2013-06-04 23:00:00,80.3,74.4,30.03,NE,39,0.6,2.4,82,0.00,,---,0.18,VWS V13.01,2013-06-05 03:00:00,
2013-06-04 23:05:00,80.3,74.6,30.03,NE,46,1.6,3.7,83,0.00,,---,0.18,VWS V13.01,2013-06-05 03:05:00,
2013-06-04 23:10:00,80.4,74.9,30.03,ENE,65,3.7,5.3,83,0.00,,---,0.18,VWS V13.01,2013-06-05 03:10:00,
2013-06-04 23:15:00,80.2,74.8,30.03,NE,48,5.1,5.6,84,0.00,,---,0.18,VWS V13.01,2013-06-05 03:15:00,
2013-06-04 23:20:00,80.2,74.8,30.03,ENE,73,2.4,6.7,84,0.00,,---,0.18,VWS V13.01,2013-06-05 03:20:00,
2013-06-04 23:25:00,80.5,75.1,30.03,ENE,58,2.2,3.1,84,0.00,,---,0.18,VWS V13.01,2013-06-05 03:25:00,
2013-06-04 23:30:00,80.3,74.8,30.02,NE,38,2.0,6.7,83,0.00,,---,0.18,VWS V13.01,2013-06-05 03:30:00,
2013-06-04 23:35:00,80.3,74.7,30.02,NNE,22,6.2,6.5,83,0.00,,---,0.18,VWS V13.01,2013-06-05 03:35:00,
2013-06-04 23:40:00,80.4,74.7,30.03,NE,49,4.5,4.5,83,0.00,,---,0.18,VWS V13.01,2013-06-05 03:40:00,
2013-06-04 23:45:00,80.3,74.6,30.03,NE,35,3.0,3.2,83,0.00,,---,0.18,VWS V13.01,2013-06-05 03:45:00,
2013-06-04 23:50:00,80.3,74.7,30.03,East,90,0.3,2.4,83,0.00,,---,0.18,VWS V13.01,2013-06-05 03:50:00,
2013-06-04 23:55:00,80.5,74.9,30.03,NNE,31,1.3,1.8,83,0.00,,---,0.18,VWS V13.01,2013-06-05 03:55:00,